Weather History for Palm Springs, CA

Change the Weather History Date:

Monday, August 6, 2012

  Actual Average Record
Temperature  
Mean Temperature 99 °F 92 °F  
Max Temperature 111 °F 107 °F 119 °F (1994)
Min Temperature 87 °F 78 °F 58 °F (1933)
Degree Days  
Heating Degree Days 0 0  
Month to date heating degree days 0 0  
Since 1 June heating degree days 0 0  
Since 1 July heating degree days 0 0  
Cooling Degree Days 34 27  
Month to date cooling degree days 176 167  
Year to date cooling degree days 2655 2419  
Since 1 June cooling degree days 1716 1660  
Growing Degree Days 49 (Base 50)    
Moisture  
Dew Point 55 °F    
Average Humidity 25    
Maximum Humidity 34    
Minimum Humidity 16    
Precipitation  
Precipitation 0.00 in 0.01 in 0.00 in (2014)
Month to date precipitation 0.00 0.06  
Year to date precipitation 1.11 3.25  
Since 1 July precipitation 0.32 0.31  
Snow  
Snow 0.00 in - - ()
Month to date snowfall 0.0  
Year to date snowfall 0.0  
Since 1 July snowfall 0.0  
Snow Depth 0.00 in    
Sea Level Pressure  
Sea Level Pressure 29.86 in    
Wind  
Wind Speed 6 mph (NE)    
Max Wind Speed 13 mph    
Max Gust Speed 20 mph    
Visibility 10 miles    
Events      
T = Trace of Precipitation, MM = Missing Value Source: NWS Daily Summary

Daily Weather History Graph

Daily Weather History Graph

Search for Another Location

Airport:

Trip Planner

Search our weather history database for the weather conditions in past years. The results will help you decide how hot, cold, wet, or windy it might be!

Date:

Astronomy

Aug. 06, 2012 Rise Set
Actual Time 6:01 AM PDT 7:41 PM PDT
Civil Twilight 5:34 AM PDT 8:08 PM PDT
Nautical Twilight 5:02 AM PDT 8:40 PM PDT
Astronomical Twilight 4:28 AM PDT 9:14 PM PDT
Moon 10:11 PM PDT (8/6) 10:37 AM PDT (8/6)
Length of Visible Light 14h 33m
Length of Day
13h 39m
Waning Gibbous, 77% of the Moon is Illuminated
Aug 6
Waning Gibbous
Aug 9
Last Quarter
Aug 17
New
Aug 24
First Quarter
Aug 31
Full

Hourly Weather History & Observations

Time (PDT) Temp. Heat Index Dew Point Humidity Pressure Visibility Wind Dir Wind Speed Gust Speed Precip Events Conditions
12:53 AM 91.9 °F 90.6 °F 57.0 °F 31% 29.89 in 10.0 mi NNW 10.4 mph - N/A   Clear
1:53 AM 90.0 °F 88.6 °F 57.0 °F 33% 29.88 in 10.0 mi NNW 10.4 mph - N/A   Clear
2:53 AM 90.0 °F 87.9 °F 55.0 °F 30% 29.88 in 10.0 mi NNW 3.5 mph - N/A   Clear
3:53 AM 89.1 °F 87.1 °F 55.0 °F 31% 29.88 in 10.0 mi NW 9.2 mph - N/A   Clear
4:53 AM 88.0 °F 85.9 °F 54.0 °F 31% 29.88 in 10.0 mi NNW 8.1 mph - N/A   Clear
5:53 AM 88.0 °F 85.9 °F 54.0 °F 31% 29.90 in 10.0 mi NW 4.6 mph - N/A   Clear
6:53 AM 87.1 °F 85.3 °F 55.0 °F 33% 29.92 in 10.0 mi NW 6.9 mph - N/A   Clear
7:53 AM 91.0 °F 88.9 °F 55.0 °F 29% 29.93 in 10.0 mi Calm Calm - N/A   Clear
8:53 AM 96.1 °F 94.5 °F 55.9 °F 26% 29.92 in 10.0 mi Calm Calm - N/A   Partly Cloudy
9:53 AM 100.0 °F 99.2 °F 57.0 °F 24% 29.93 in 10.0 mi East 5.8 mph - N/A   Partly Cloudy
10:53 AM 100.9 °F 101.0 °F 59.0 °F 25% 29.93 in 10.0 mi East 6.9 mph - N/A   Partly Cloudy
11:53 AM 102.9 °F 103.0 °F 57.9 °F 23% 29.91 in 10.0 mi ESE 3.5 mph - N/A   Clear
12:53 PM 106.0 °F 106.4 °F 57.9 °F 21% 29.89 in 10.0 mi Calm Calm - N/A   Scattered Clouds
1:53 PM 109.0 °F 108.9 °F 57.0 °F 18% 29.86 in 10.0 mi SE 11.5 mph - N/A   Clear
2:53 PM 109.9 °F 108.6 °F 55.0 °F 16% 29.84 in 10.0 mi Variable 6.9 mph 16.1 mph N/A   Scattered Clouds
3:53 PM 111.0 °F 110.1 °F 55.0 °F 16% 29.81 in 10.0 mi East 12.7 mph - N/A   Clear
4:53 PM 108.0 °F 106.6 °F 55.0 °F 17% 29.79 in 10.0 mi SE 6.9 mph - N/A   Scattered Clouds
5:53 PM 107.1 °F 105.4 °F 54.0 °F 17% 29.79 in 10.0 mi SE 5.8 mph - N/A   Scattered Clouds
6:53 PM 107.1 °F 105.4 °F 54.0 °F 17% 29.78 in 10.0 mi East 3.5 mph - N/A   Clear
7:53 PM 104.0 °F 103.4 °F 57.0 °F 21% 29.79 in 10.0 mi SE 4.6 mph - N/A   Clear
8:53 PM 104.0 °F 101.8 °F 53.1 °F 18% 29.81 in 10.0 mi Calm Calm - N/A   Clear
9:53 PM 100.0 °F 98.8 °F 55.9 °F 23% 29.82 in 10.0 mi Calm Calm - N/A   Clear
10:53 PM 100.0 °F - 50.0 °F 18% 29.82 in 10.0 mi North 5.8 mph - N/A   Clear
11:53 PM 96.1 °F 93.8 °F 54.0 °F 24% 29.82 in 10.0 mi WNW 3.5 mph - N/A   Clear